Battle Mountain, Nevada, United States (89820)
Lat: 40.64N, Lon: 116.93W
Wx Zone: NVZ036
Local Info
Past Weather Observations for Thursday, April 17, 2014

NOTE: This archive is for the closest National Weather Service station to Battle Mountain. Information may differ from the station used for current weather conditions.

Time Weather Temperature Dewpoint Humidity Pressure Winds Precip Visibility
23:56
Clear
46°F / 8°C 39°F / 4°C 76% 29.95 in
(1014 mb)
NW 9.2 mph
(NW 15 kph)
- 10SM
22:56
Partly Cloudy
48°F / 9°C 43°F / 6°C 82% 29.92 in
(1013 mb)
NW 9.2 mph
(NW 15 kph)
- 10SM
21:56
Partly Cloudy
54°F / 12°C 45°F / 7°C 72% 29.89 in
(1012 mb)
NNW 11.5 mph
(NNW 19 kph)
0.00 in
(0.00 mm)
10SM
20:56
Overcast
Light Rain
55°F / 13°C 48°F / 9°C 77% 29.83 in
(1010 mb)
NNW 3.5 mph
(NNW 6 kph)
0.02 in
(0.51 mm)
10SM
19:56
Overcast
57°F / 14°C 46°F / 8°C 67% 29.8 in
(1009 mb)
NW 9.2 mph
(NW 15 kph)
- 10SM
18:56
Overcast
61°F / 16°C 43°F / 6°C 52% 29.77 in
(1008 mb)
SE 6.9 mph
(SE 11 kph)
0.01 in
(0.25 mm)
10SM
18:45
Overcast
Light Rain
61°F / 16°C 43°F / 6°C 52% 29.77 in
(1008 mb)
SSE 11.5 mph
(SSE 19 kph)
0.01 in
(0.25 mm)
10SM
17:56
Partly Cloudy
72°F / 22°C 28°F / -2°C 20% 29.74 in
(1007 mb)
SSE 4.6 mph
(SSE 7 kph)
- 10SM
16:56
Clear
73°F / 23°C 27°F / -3°C 17% 29.74 in
(1007 mb)
SW 13.8 mph
(SW 22 kph)
- 10SM
15:56
Clear
77°F / 25°C 27°F / -3°C 15% 29.74 in
(1007 mb)
SW 17.3 mph
(SW 28 kph)
- 10SM
14:56
Partly Cloudy
77°F / 25°C 27°F / -3°C 15% 29.77 in
(1008 mb)
W 12.7 mph
(W 20 kph)
- 10SM
13:56
Clear
75°F / 24°C 27°F / -3°C 16% 29.8 in
(1009 mb)
SW 9.2 mph
(SW 15 kph)
- 10SM
12:56
Clear
73°F / 23°C 28°F / -2°C 19% 29.83 in
(1010 mb)
Variable 3.5 mph
(Variable 6 kph)
- 10SM
11:56
Clear
73°F / 23°C 27°F / -3°C 17% 29.86 in
(1011 mb)
Variable 5.8 mph
(Variable 9 kph)
- 10SM
10:56
Clear
72°F / 22°C 28°F / -2°C 20% 29.89 in
(1012 mb)
SSE 12.7 mph
(SSE 20 kph)
- 10SM
09:56
Clear
66°F / 19°C 27°F / -3°C 22% 29.92 in
(1013 mb)
S 12.7 mph
(S 20 kph)
- 10SM
08:56
Clear
61°F / 16°C 30°F / -1°C 31% 29.95 in
(1014 mb)
ENE 8.1 mph
(ENE 13 kph)
- 10SM
07:56
Clear
54°F / 12°C 28°F / -2°C 38% 29.95 in
(1014 mb)
NE 9.2 mph
(NE 15 kph)
- 10SM
06:56
Clear
48°F / 9°C 27°F / -3°C 43% 29.98 in
(1015 mb)
ENE 9.2 mph
(ENE 15 kph)
- 10SM
05:56
Clear
43°F / 6°C 27°F / -3°C 53% 29.98 in
(1015 mb)
ENE 8.1 mph
(ENE 13 kph)
- 10SM
04:56
Clear
36°F / 2°C 25°F / -4°C 65% 29.98 in
(1015 mb)
SE 9.2 mph
(SE 15 kph)
- 10SM
03:56
Clear
34°F / 1°C 25°F / -4°C 70% 29.98 in
(1015 mb)
ESE 6.9 mph
(ESE 11 kph)
- 10SM
02:56
Clear
34°F / 1°C 25°F / -4°C 70% 29.98 in
(1015 mb)
E 4.6 mph
(E 7 kph)
- 10SM
01:56
Clear
46°F / 8°C 25°F / -4°C 43% 29.98 in
(1015 mb)
NE 10.4 mph
(NE 17 kph)
- 10SM
00:56
Clear
37°F / 3°C 27°F / -3°C 65% 30.01 in
(1016 mb)
SE 8.1 mph
(SE 13 kph)
- 10SM
Time Weather Temperature Dewpoint Humidity Pressure Winds Precip Visibility


Weather for websites

WeatherForYou.com, LLC is not responsible for any damages or problems caused by this service. Current weather conditions are obtained from the closest station including government and personal stations which may have varying degrees of accuracy. Weather forecasts are derived from the NOAA NDFD. Like all things, this site belongs to Jesus Christ... He just trusts me to maintain it. If you have any questions or comments email webmaster@weatherforyou.com

Copyright © 2014, WeatherForYou.com LLC. All rights reserved.